Anniston, AL

5:02 PM CST on November 20, 2019 (GMT -0600)
Anniston Metro

Weather History for KANB - September, 2019

Change the Weather History Date:

Monday, September 23, 2019

  Actual Average Record
Temperature  
Mean Temperature 76 °F 71 °F  
Max Temperature 93 °F 82 °F 97 °F (2016)
Min Temperature 59 °F 60 °F 40 °F (1999)
Degree Days  
Heating Degree Days 0    
Month to date heating degree days 0  
Since 1 July heating degree days 0  
Cooling Degree Days 10    
Growing Degree Days 25 (Base 50)    
Moisture  
Dew Point 60 °F    
Average Humidity 64    
Maximum Humidity 93    
Minimum Humidity 34    
Precipitation  
Precipitation 0.00 in 0.09 in 3.33 in (1975)
Month to date precipitation 0.42 2.23  
Year to date precipitation 39.59 37.15  
Sea Level Pressure  
Sea Level Pressure 30.05 in    
Wind  
Wind Speed 3 mph (NE)    
Max Wind Speed 15 mph    
Max Gust Speed 19 mph    
Visibility 10 miles    
Events      
T = Trace of Precipitation, MM = Missing Value Source: NWS Daily Summary

Daily Weather History Graph

Daily Weather History Graph

Search for Another Location

Airport or City:

Astronomy

Sep. 23, 2019 Rise Set
Actual Time 6:32 AM CDT 6:39 PM CDT
Civil Twilight 6:07 AM CDT 7:03 PM CDT
Nautical Twilight 5:38 AM CDT 7:32 PM CDT
Astronomical Twilight 5:08 AM CDT 8:02 PM CDT
Moon 12:32 AM CDT (9/23) 3:14 PM CDT (9/23)
Length of Visible Light 12h 56m
Length of Day
12h 06m
Waning Crescent, 33% of the Moon is Illuminated
Sep 23
Waning Crescent
Sep 28
New
Oct 5
First Quarter
Oct 13
Full
Oct 21
Last Quarter

Hourly Weather History & Observations

Time (CDT) Temp. Heat Index Dew Point Humidity Pressure Visibility Wind Dir Wind Speed Gust Speed Precip Events Conditions
12:53 AM 63.0 °F - 57.9 °F 84% 30.09 in 10.0 mi Calm Calm - N/A   Clear
1:53 AM 60.1 °F - 57.0 °F 90% 30.09 in 10.0 mi Calm Calm - N/A   Clear
2:53 AM 60.1 °F - 57.0 °F 90% 30.09 in 10.0 mi Calm Calm - N/A   Clear
3:53 AM 61.0 °F - 57.0 °F 87% 30.09 in 10.0 mi NE 4.6 mph - N/A   Clear
4:53 AM 60.1 °F - 57.0 °F 90% 30.09 in 10.0 mi ENE 3.5 mph - N/A   Clear
5:53 AM 59.0 °F - 57.0 °F 93% 30.10 in 10.0 mi East 3.5 mph - N/A   Clear
6:53 AM 59.0 °F - 57.0 °F 93% 30.11 in 10.0 mi ENE 3.5 mph - N/A   Clear
7:53 AM 62.1 °F - 57.0 °F 84% 30.13 in 10.0 mi East 3.5 mph - N/A   Clear
8:53 AM 71.1 °F - 60.1 °F 68% 30.13 in 10.0 mi Calm Calm - N/A   Clear
9:53 AM 78.1 °F - 57.9 °F 50% 30.12 in 10.0 mi SW 6.9 mph - N/A   Clear
10:53 AM 84.0 °F 83.8 °F 59.0 °F 43% 30.10 in 10.0 mi Variable 4.6 mph - N/A   Clear
11:53 AM 88.0 °F 87.1 °F 59.0 °F 37% 30.08 in 10.0 mi WSW 9.2 mph - N/A   Clear
12:53 PM 89.1 °F 88.0 °F 57.9 °F 35% 30.05 in 10.0 mi North - - N/A   Clear
1:53 PM 91.9 °F 91.5 °F 60.1 °F 34% 30.02 in 10.0 mi Variable 3.5 mph - N/A   Clear
2:53 PM 90.0 °F 89.1 °F 59.0 °F 35% 30.00 in 10.0 mi North 6.9 mph - N/A   Scattered Clouds
4:53 PM 91.0 °F 90.2 °F 59.0 °F 34% 29.97 in 10.0 mi Calm Calm - N/A   Partly Cloudy
5:53 PM 90.0 °F 89.1 °F 59.0 °F 35% 29.97 in 10.0 mi WNW 4.6 mph - N/A   Clear
7:53 PM 75.9 °F - 63.0 °F 64% 29.98 in 10.0 mi Calm Calm - N/A   Mostly Cloudy
8:53 PM 75.9 °F - 64.9 °F 69% 29.98 in 10.0 mi Calm Calm - N/A   Overcast
9:53 PM 75.0 °F - 66.0 °F 73% 29.98 in 10.0 mi Calm Calm - N/A   Overcast
10:53 PM 75.0 °F - 66.0 °F 73% 29.97 in 10.0 mi Calm Calm - N/A   Overcast
11:53 PM 75.0 °F - 64.9 °F 71% 29.96 in 10.0 mi Calm Calm - N/A   Overcast